This demonstration page uses our WeatherBlox Daily Observations layout. Learn more.

Left ArrowRight Arrow

38.20091, -84.87328

Hourly Observations for July 31, 2021

Temp ( °F °C ) Dew Point ( °F °C ) Humidity (%) Winds ( mph kmh ) Pressure ( in mb ) Visibility ( mi km ) Precip ( " mm )
12:53 am 00:53 Clear 72 22.2 63 17.2 73 73 N 5 7 30.04 1017 8 13 0.00 0.00
1:53 am 01:53 Clear 67 19.4 63 17.2 87 87 Calm 30.01 1016 8 13 0.00 0.00
2:53 am 02:53 Clear 67 19.4 63 17.2 87 87 NNW 3 6 30.00 1016 7 11 0.00 0.00
3:53 am 03:53 Clear 66 18.9 63 17.2 90 90 Calm 30.01 1016 8 13 0.00 0.00
4:53 am 04:53 Clear 65 18.3 62 16.7 90 90 Calm 30.01 1016 7 11 0.00 0.00
5:53 am 05:53 Clear with Mist and Fog 63 17.2 62 16.7 97 97 Calm 30.01 1016 6 10 0.00 0.00
6:53 am 06:53 Sunny with Mist and Fog 64 17.8 62 16.7 93 93 Calm 30.00 1016 5 8 0.00 0.00
7:53 am 07:53 Sunny with Mist and Fog 65 18.3 63 17.2 93 93 NNW 3 6 30.02 1017 6 10 0.00 0.00
8:53 am 08:53 Sunny 68 20 64 17.8 87 87 N 3 6 30.03 1017 7 11 0.00 0.00
9:53 am 09:53 Sunny 73 22.8 64 17.8 74 74 Calm 30.01 1016 7 11 0.00 0.00
10:53 am 10:53 Sunny 76 24.4 67 19.4 74 74 SW 3 6 30.00 1016 8 13 0.00 0.00
11:53 am 11:53 Partly Cloudy 76 24.4 67 19.4 74 74 WSW 5 7 30.01 1016 8 13 0.00 0.00
12:53 pm 12:53 Cloudy 76 24.4 68 20 77 77 W 5 7 30.02 1017 8 13 0.00 0.00
1:53 pm 13:53 Mostly Cloudy 77 25 68 20 74 74 NW 7 11 30.05 1018 8 13 0.00 0.00
2:53 pm 14:53 Cloudy 76 24.4 66 18.9 72 72 N 5 7 30.00 1016 9 14 0.00 0.00
3:53 pm 15:53 Cloudy 75 23.9 65 18.3 71 71 Calm 30.00 1016 10 16 0.01 0.25
4:53 pm 16:53 Partly Cloudy 76 24.4 64 17.8 67 67 SE 5 7 29.94 1014 10 16 0.00 0.00
5:53 pm 17:53 Cloudy 76 24.4 66 18.9 72 72 NW 6 9 29.95 1014 10 16 0.00 0.00
6:53 pm 18:53 Cloudy 73 22.8 66 18.9 79 79 NW 5 7 29.95 1014 9 14 0.00 0.00
7:53 pm 19:53 Cloudy 74 23.3 66 18.9 76 76 Calm 29.95 1014 9 14 0.00 0.00
8:53 pm 20:53 Cloudy 73 22.8 63 17.2 71 71 NW 3 6 29.95 1014 8 13 0.00 0.00
9:53 pm 21:53 Cloudy 71 21.7 65 18.3 81 81 NW 3 6 29.95 1014 9 14 0.00 0.00
10:42 pm 22:42 Cloudy 70 21.1 66 18.9 87 87 N 6 9 29.95 1014 9 14 0.00 0.00
10:53 pm 22:53 Cloudy 70 21.1 66 18.9 87 87 NNE 6 9 29.95 1014 9 14 0.00 0.00
11:02 pm 23:02 Cloudy 70 21.1 65 18.3 84 84 NE 6 9 29.95 1014 10 16 0.00 0.00
11:27 pm 23:27 Cloudy 69 20.6 65 18.3 87 87 NNE 5 7 29.93 1014 10 16 0.00 0.00
11:46 pm 23:46 Mostly Cloudy 69 20.6 64 17.8 84 84 NNE 6 9 29.93 1014 10 16 0.00 0.00
11:53 pm 23:53 Partly Cloudy 68 20 64 17.8 87 87 N 7 11 29.93 1014 9 14 0.00 0.00

Powered by AerisWeather